Regional Weather Roundup
Issued by NWS

Home | Current Version | Previous Version | Graphics & Text | Print | Product List | Glossary On
Versions: 1 2 3 4 5 6 7 8 9 10 11 12 13 14 15 16 17 18 19 20 21 22 23 24 25 26 27 28 29 30 31 32 33 34 35 36 37 38 39 40 41 42 43 44 45 46 47 48 49 50
488
ASUS43 KOAX 222310
RWRNE

WEATHER ROUNDUP FOR NEBRASKA
NATIONAL WEATHER SERVICE OMAHA NE
600 PM CDT FRI JUL 22 2016

NOTES: SATELLITE DATA IS BEING USED TO AUGMENT CLOUD COVER ABOVE
       12000 FEET.
       "FAIR" INDICATES FEW OR NO CLOUDS BELOW 12,000 FEET WITH NO
       SIGNIFICANT WEATHER AND/OR OBSTRUCTIONS TO VISIBILITY.

  * THESE STATIONS DO NOT REPORT WEATHER SUCH AS RAIN...SNOW OR FOG.

NEZ001>004-019>022-054>056-230000-
NEBRASKA PANHANDLE

CITY           SKY/WX    TMP DP  RH WIND       PRES   REMARKS
SCOTTSBLUFF    MOSUNNY   85  65  51 NE17G23   30.02R
ALLIANCE       TSTM      69  66  90 E17G25    30.09
CHADRON        LGT RAIN  75  64  68 E14       30.04F
KIMBALL        SUNNY     92  54  27 SW14      30.08F
SIDNEY         CLOUDY    95  57  27 S15G26    30.04F HX  94
$$

NEZ057>060-069>072-079>082-230000-
SOUTHWEST NEBRASKA

CITY           SKY/WX    TMP DP  RH WIND       PRES   REMARKS
NORTH PLATTE   MOSUNNY   92  78  63 E8        29.95F HX 107
IMPERIAL       CLOUDY    97  61  30 E12       29.97F HX  97
LEXINGTON      SUNNY     91  72  53 SE14      29.96S HX  99
MCCOOK         CLOUDY    96  65  35 E12       29.94F HX  98
OGALLALA       CLOUDY    88  56  33 SE5       29.98F
$$

NEZ005>010-023>029-035>040-094-230000-
NORTH CENTRAL NEBRASKA

CITY           SKY/WX    TMP DP  RH WIND       PRES   REMARKS
VALENTINE      CLOUDY    95  61  32 S10       29.96F HX  95
AINSWORTH      PTSUNNY   90  77  66 E6        29.97F HX 102
BROKEN BOW     SUNNY     92  77  61 E8        29.95F HX 105
O`NEILL        PTSUNNY   94  74  50 E10       29.95R HX 104
ORD            SUNNY     94  75  54 SE6       29.91F HX 105
THEDFORD       CLOUDY    95  70  43 SE13      30.00S HX 101
$$

NEZ041-046>049-061>064-073>077-083>087-230000-
SOUTH CENTRAL NEBRASKA

CITY           SKY/WX    TMP DP  RH WIND       PRES   REMARKS
GRAND ISLAND   MOSUNNY   93  72  50 S12       29.92F HX 101
AURORA         MOSUNNY   90  73  57 S7        29.92S HX  97
HASTINGS       MOSUNNY   90  69  50 SW7       29.95S HX  94
HEBRON         PTSUNNY   86  61  42 S17G26    29.87F
HOLDREGE       SUNNY     90  67  47 SE7       29.96F HX  92
KEARNEY *      SUNNY     91  72  52 S12       29.96S HX  98
YORK           CLOUDY    86  72  62 S7        29.92F HX  92
$$

NEZ011>018-030>034-042>045-230000-
NORTHEAST NEBRASKA

CITY           SKY/WX    TMP DP  RH WIND       PRES   REMARKS
NORFOLK        MOSUNNY   92  76  59 SE8       29.91F HX 104
ALBION         SUNNY     91  78  66 NE7       29.92F HX 105
BLAIR          MOSUNNY   92  82  71 S7        29.92F HX 114
FREMONT        CLOUDY    93  74  54 S7        29.91F HX 103
TEKAMAH        MOSUNNY   94  77  57 S9        29.90F HX 108
WAYNE          MOSUNNY   89  80  73 SE9       29.93S HX 106
$$

NEZ050>053-065>068-078-088>093-230000-
SOUTHEAST NEBRASKA

CITY           SKY/WX    TMP DP  RH WIND       PRES   REMARKS
LINCOLN        CLOUDY    92  72  51 SW6       29.91F HX  99
OMAHA EPPLEY   PTSUNNY   94  80  64 S10       29.90F HX 113
BEATRICE       CLOUDY    90  67  46 S12       29.90F HX  92
FALLS CITY     CLOUDY    94  75  54 S8        29.90F HX 105
NEBRASKA CITY  CLOUDY    91  79  68 S7        29.91F HX 107
PLATTSMOUTH    MOSUNNY   91  82  73 SE5       29.91F HX 113
$$

NEZ044-045-051>053-067-230000-
OMAHA AREA

CITY           SKY/WX    TMP DP  RH WIND       PRES   REMARKS
OMAHA EPPLEY   PTSUNNY   94  80  64 S10       29.90F HX 113
BLAIR          MOSUNNY   92  82  71 S7        29.92F HX 114
FREMONT        CLOUDY    93  74  54 S7        29.91F HX 103
MILLARD        MOSUNNY   93  82  71 SE7       29.90F HX 116
OFFUTT AFB     CLOUDY    92  81  69 S10       29.90F HX 113
PLATTSMOUTH    MOSUNNY   91  82  73 SE5       29.91F HX 113
WAHOO          FAIR      93  76  59 S8        29.90F HX 105
$$




USA.gov is the U.S. government's official web portal to all federal, state and local government web resources and services.